STARLINK-32856, 62819

Orbit data source: Space-Track

STARLINK-32856, 62819 is a payload satellite owned by SpaceX/Seattle (US) in LEO that was launched on Fri, 24 Jan 2025 UTC via an FALCON 9 launch vehicle from the Air Force Western Test Range (AFWTR). Payload-class satellites include a variety of spacecraft equipped with specific instruments for various scientific and technological missions. These include communications satellites like Starlink; space stations such as the ISS; scientific satellites like the Hubble; Earth observation satellites from companies like Planet Labs, Umbra, and HawkEye 360; GPS; miniature CubeSats for education and research; and military/defense satellites.

Loading next visibility...
Identifier
62819, 2025-018P
Orbit
LEO
Country
Flag of USUS
Related business
Manufacturer
SpaceX/Seattle
Mission
Operational Commercial Communications
Bus & Motor
STARLINK V2M, Unknown motor
Mass
730 kg wet, ~700 kg dry
Launch date (UTC)
2025-01-24 (1 year ago)
Launch vehicle
FALCON 9
Launch site
Air Force Western Test Range (AFWTR)
Object type
Payload
Rocket body
Debris
Shape & HBR
Box + 2 Pan, 17.7 m
Radar Cross Section
33.884 m², Large (>1 m²)

Expand to show TLE details & history
Last TLE update: 7 hours ago

TLE from 7 hours ago
0 STARLINK-32856
1 62819U 25018P   26177.68347009  .00016868  00000-0  50933-3 0  9994
2 62819  53.1586 162.7794 0001168  90.0320 270.0816 15.34394457 79872
Epoch: 2026-06-26T16:24Z
TLE epoch observation values (Epoch: 2026-06-26T16:24:11.815Z)
Latitude
-0.00007°
Longitude
1.92166°
Altitude
463.62 km
Speed
7.636 km/s
True Right ascension
10h 51m 07s
True Declination
0° 00' 00"
Sunlit
Object was in daylight at epoch
Visualization orbit readout
Latitude
Unknown
Longitude
Unknown
Altitude
Unknown
Speed
Unknown
Apparent Right ascension
Unknown
Apparent Declination
Unknown
Sunlit
N/A
Visualization observer readout
Local Sidereal Time
10:57:50
Azimuth
Unknown
Elevation
Unknown
Doppler factor
Unknown
Orbital elements
Apogee altitude
463.776 km
Perigee altitude
462.178 km
Semi-major axis
6,841.114 km
Eccentricity
0.00012
Inclination
53.1586°
RAAN
162.7794°
Arg. of periapsis
90.032°
True anomaly
270.06822°
Mean anomaly
270.0816°
Eccentric anomaly
270.07491°
Mean motion
3.83577 °/min
Orbital period
93.85 mins
BSTAR
0.00050933
Loading maneuver chart data...
Computing Atmospheric mass density...
Loading historical data...
Loading historical data...
Loading historical data...
Loading historical data...
Loading historical data...
Loading historical data...
Loading historical data...

Documentation

Showing up to 5 results
|